Home   Weather   USA   Chestertown   Past weeks
Flag for USA

Past Weather in Chestertown, Maryland, USA — Yesterday and Last 2 Weeks

Currently: 45 °F. Passing clouds. (Weather station: Bay Bridge Airport, USA). See more current weather

Past Weather in Chestertown — Graph

°F

Chestertown Temperature Yesterday

Maximum temperature yesterday: 56 °F (at 6:55 am)
Minimum temperature yesterday: 48 °F (at 11:55 pm)
Average temperature yesterday: 52 °F

High & Low Weather Summary for the Past Weeks

 TemperatureHumidityPressure
High59 °F (Nov 25, 3:15 pm)100% (Nov 15, 4:55 pm)30.53 "Hg (Nov 15, 4:55 pm)
Low23 °F (Nov 21, 5:15 am)24% (Nov 22, 12:35 pm)29.44 "Hg (Nov 27, 5:35 pm)
Average44 °F58%30.16 "Hg
* Reported Nov 14 2:15 am — Nov 29 2:15 am, Chestertown. Weather by CustomWeather, © 2022

Note: Actual official high and low records may vary slightly from our data, if they occured in-between our weather recording intervals... More about our weather records

Chestertown Weather History for the Previous 24 Hours

Scroll right to see more
 ConditionsComfort  
Time TempWeatherWind HumidityBarometerVisibility
2:15 am
Tue, Nov 29
46 °FOvercast.5 mph73%30.17 "Hg10 mi
1:55 am46 °FOvercast.7 mph73%30.16 "Hg10 mi
1:15 am46 °FPassing clouds.6 mph70%30.14 "Hg10 mi
12:55 am46 °FPassing clouds.6 mph71%30.13 "Hg10 mi
12:35 am46 °FPassing clouds.5 mph71%30.12 "Hg10 mi
12:15 am47 °FOvercast.5 mph67%30.12 "Hg10 mi
11:55 pm
Mon, Nov 28
48 °FOvercast.8 mph66%30.13 "Hg10 mi
11:15 pm48 °FOvercast.8 mph67%30.12 "Hg10 mi
10:55 pm48 °FOvercast.5 mph68%30.10 "Hg10 mi
10:35 pm48 °FOvercast.6 mph69%30.10 "Hg10 mi
10:15 pm49 °FOvercast.6 mph66%30.09 "Hg10 mi
9:55 pm49 °FOvercast.5 mph66%30.09 "Hg10 mi
9:15 pm49 °FOvercast.6 mph65%30.08 "Hg10 mi
8:55 pm49 °FOvercast.7 mph65%30.07 "Hg10 mi
8:35 pm49 °FOvercast.8 mph64%30.06 "Hg10 mi
8:15 pm49 °FOvercast.7 mph64%30.06 "Hg10 mi
7:55 pm49 °FOvercast.8 mph63%30.04 "Hg10 mi
6:35 pm50 °FMostly cloudy.7 mph68%30.01 "Hg10 mi
6:15 pm51 °FMostly cloudy.7 mph61%29.99 "Hg10 mi
5:35 pm51 °FOvercast.9 mph61%29.97 "Hg10 mi
5:15 pm51 °FOvercast.10 mph60%29.96 "Hg10 mi
4:55 pm51 °FOvercast.12 mph59%29.95 "Hg10 mi
4:35 pm52 °FOvercast.12 mph57%29.94 "Hg10 mi
4:15 pm52 °FOvercast.12 mph56%29.93 "Hg10 mi
3:55 pm52 °FOvercast.12 mph54%29.92 "Hg10 mi
3:15 pm53 °FOvercast.13 mph53%29.89 "Hg10 mi
2:55 pm53 °FOvercast.9 mph57%29.88 "Hg10 mi
2:15 pm53 °FOvercast.8 mph60%29.86 "Hg10 mi
1:55 pm54 °FScattered clouds.8 mph58%29.85 "Hg10 mi
1:35 pm54 °FPartly sunny.10 mph58%29.85 "Hg10 mi
1:15 pm52 °FOvercast.8 mph62%29.85 "Hg10 mi
12:55 pm53 °FOvercast.10 mph58%29.85 "Hg10 mi
11:55 am51 °FOvercast.12 mph61%29.84 "Hg10 mi
11:35 am51 °FOvercast.10 mph64%29.84 "Hg10 mi
10:55 am52 °FOvercast.17 mph62%29.82 "Hg10 mi
10:35 am52 °FOvercast.17 mph66%29.82 "Hg10 mi
10:15 am53 °FPartly sunny.14 mph66%29.81 "Hg10 mi
9:55 am54 °FScattered clouds.15 mph63%29.80 "Hg10 mi
9:35 am54 °FScattered clouds.15 mph64%29.78 "Hg10 mi
9:15 am55 °FSunny.20 mph65%29.76 "Hg10 mi
8:55 am55 °FSunny.17 mph66%29.74 "Hg10 mi
7:55 am55 °FSunny.10 mph70%29.69 "Hg10 mi
7:35 am56 °FSunny.16 mph67%29.68 "Hg10 mi
7:15 am55 °FScattered clouds.13 mph71%29.66 "Hg10 mi
6:55 am56 °FPassing clouds.16 mph67%29.65 "Hg10 mi
6:15 am56 °FPassing clouds.12 mph72%29.63 "Hg10 mi
5:55 am55 °FPassing clouds.12 mph79%29.62 "Hg10 mi
5:35 am53 °FPassing clouds.9 mph91%29.62 "Hg10 mi
4:55 am52 °FOvercast.5 mphN/A29.61 "Hg10 mi
4:35 am52 °FOvercast.No windN/A29.60 "Hg10 mi
3:55 am52 °FOvercast.3 mphN/A29.59 "Hg7 mi
3:35 am52 °FOvercast.3 mphN/A29.59 "Hg10 mi
3:15 am50 °FPassing clouds.3 mphN/A29.58 "Hg7 mi
Weather by CustomWeather, © 2022

See weather overview